Baton Rouge, LA

8:41 PM CST on December 15, 2019 (GMT -0600)
Baton Rouge Metro-Ryan

Weather History for KBTR - November, 2019

Change the Weather History Date:

Sunday, November 17, 2019

  Actual Average Record
Temperature  
Mean Temperature 50 °F 60 °F  
Max Temperature 66 °F 71 °F 86 °F (1921)
Min Temperature 34 °F 48 °F 28 °F (1920)
Degree Days  
Heating Degree Days 15 7  
Month to date heating degree days 200 83  
Since 1 July heating degree days 229 129  
Cooling Degree Days 0 1  
Month to date cooling degree days 9 36  
Year to date cooling degree days 3123 2786  
Moisture  
Dew Point 34 °F    
Average Humidity 58    
Maximum Humidity 89    
Minimum Humidity 26    
Precipitation  
Precipitation 0.00 in 0.13 in 2.64 in (2015)
Month to date precipitation 0.16 2.33  
Year to date precipitation 59.72 53.28  
Snow  
Snow 0.00 in - - ()
Month to date snowfall 0.0  
Since 1 July snowfall 0.0  
Since 1 September snowfall 0.0  
Snow Depth 0.00 in    
Sea Level Pressure  
Sea Level Pressure 30.03 in    
Wind  
Wind Speed 2 mph (NW)    
Max Wind Speed 10 mph    
Max Gust Speed 14 mph    
Visibility 10 miles    
Events      
T = Trace of Precipitation, MM = Missing Value Source: NWS Daily Summary

Daily Weather History Graph

Daily Weather History Graph

Search for Another Location

Airport or City:

Astronomy

Nov. 17, 2019 Rise Set
Actual Time 6:32 AM CST 5:06 PM CST
Civil Twilight 6:06 AM CST 5:32 PM CST
Nautical Twilight 5:37 AM CST 6:01 PM CST
Astronomical Twilight 5:08 AM CST 6:29 PM CST
Moon 9:48 PM CST (11/17) 11:12 AM CST (11/17)
Length of Visible Light 11h 25m
Length of Day
10h 34m
Waning Gibbous, 73% of the Moon is Illuminated
Nov 17
Waning Gibbous
Nov 19
Last Quarter
Nov 26
New
Dec 4
First Quarter
Dec 11
Full

Hourly Weather History & Observations

Time (CST) Temp. Windchill Dew Point Humidity Pressure Visibility Wind Dir Wind Speed Gust Speed Precip Events Conditions
12:53 AM 39.9 °F 37.8 °F 33.1 °F 77% 30.10 in 10.0 mi NE 3.5 mph - N/A   Clear
1:53 AM 39.0 °F 35.7 °F 33.1 °F 79% 30.09 in 10.0 mi NE 4.6 mph - N/A   Clear
2:53 AM 39.9 °F 37.8 °F 33.1 °F 77% 30.07 in 10.0 mi NNE 3.5 mph - N/A   Clear
4:53 AM 37.0 °F - 33.1 °F 86% 30.06 in 10.0 mi Calm Calm - N/A   Clear
5:53 AM 36.0 °F - 32.0 °F 86% 30.08 in 10.0 mi Calm Calm - N/A   Clear
6:53 AM 35.1 °F - 32.0 °F 89% 30.08 in 8.0 mi Calm Calm - N/A   Clear
7:53 AM 41.0 °F - 36.0 °F 82% 30.11 in 10.0 mi Calm Calm - N/A   Clear
8:53 AM 48.9 °F - 37.0 °F 64% 30.10 in 10.0 mi Calm Calm - N/A   Clear
9:53 AM 55.0 °F - 35.1 °F 47% 30.10 in 10.0 mi Variable 3.5 mph - N/A   Clear
10:53 AM 57.9 °F - 34.0 °F 41% 30.08 in 10.0 mi Calm Calm - N/A   Clear
11:53 AM 61.0 °F - 33.1 °F 35% 30.06 in 10.0 mi West 5.8 mph - N/A   Clear
12:53 PM 62.1 °F - 30.9 °F 31% 30.02 in 10.0 mi West 6.9 mph - N/A   Clear
1:53 PM 63.0 °F - 33.1 °F 33% 30.00 in 10.0 mi SW 4.6 mph - N/A   Clear
2:53 PM 64.0 °F - 28.9 °F 27% 29.97 in 10.0 mi Variable 3.5 mph - N/A   Clear
3:53 PM 64.0 °F - 28.0 °F 26% 29.96 in 10.0 mi NW 3.5 mph - N/A   Clear
5:53 PM 53.1 °F - 35.1 °F 50% 29.97 in 10.0 mi West 3.5 mph - N/A   Clear
6:53 PM 50.0 °F - 37.0 °F 61% 29.97 in 10.0 mi Calm Calm - N/A   Clear
7:53 PM 46.0 °F - 39.0 °F 76% 29.99 in 10.0 mi Calm Calm - N/A   Clear
8:53 PM 45.0 °F - 37.9 °F 76% 29.99 in 10.0 mi Calm Calm - N/A   Clear
9:53 PM 44.1 °F - 39.0 °F 82% 29.99 in 9.0 mi Calm Calm - N/A   Overcast
10:53 PM 45.0 °F - 39.0 °F 80% 29.99 in 10.0 mi Calm Calm - N/A   Partly Cloudy
11:53 PM 42.1 °F - 37.9 °F 85% 29.99 in 9.0 mi Calm Calm - N/A   Clear